Regional Weather Roundup
Issued by NWS

Home | Current Version | Previous Version | Graphics & Text | Print | Product List | Glossary On
Versions: 1 2 3 4 5 6 7 8 9 10 11 12 13 14 15 16 17 18 19 20 21 22 23 24 25 26 27 28 29 30 31 32 33 34 35 36 37 38 39 40 41 42 43 44 45 46 47 48 49 50
000
ASUS43 KLOT 210303
RWRIL

ILLINOIS REGIONAL WEATHER ROUNDUP
NATIONAL WEATHER SERVICE CHICAGO/ROMEOVILLE IL
1000 PM CDT SUN MAY 20 2018

NOTE: "FAIR" INDICATES FEW OR NO CLOUDS BELOW 12,000 FEET WITH NO
SIGNIFICANT WEATHER AND/OR OBSTRUCTIONS TO VISIBILITY.

* THESE STATIONS ARE NOT UNDER NWS QUALITY CONTROL. THEY ALSO MAY NOT
  REPORT WEATHER SUCH AS PRECIPITATION OR FOG.

ILZ001-002-007-009-015-016-024-210400-
NORTHWEST ILLINOIS

CITY           SKY/WX    TMP DP  RH WIND       PRES   REMARKS
MOLINE         MOCLDY    61  54  77 E17       30.11R
SAVANNA*       CLOUDY    56  52  85 E14       30.16S
$$

ILZ003-004-008-010-011-017-018-210400-
NORTH CENTRAL ILLINOIS

CITY           SKY/WX    TMP DP  RH WIND       PRES   REMARKS
ROCKFORD       MOCLDY    53  44  71 E6        30.21R
FREEPORT*      CLOUDY    54  49  85 E8        30.20R
ROCHELLE*      CLOUDY    54  49  83 E10       30.19R
DE KALB*       CLOUDY    52  45  77 NE9       30.20R
PERU*          FAIR      57  51  79 NE13      30.15F
$$

ILZ005-006-012>014-019>023-210400-
NORTHEAST ILLINOIS

CITY           SKY/WX    TMP DP  RH WIND       PRES   REMARKS
CHICAGO-OHARE  CLOUDY    48  42  80 N8        30.19R
CHICAGO-MIDWAY MOCLDY    49  43  80 N7        30.19R
AURORA         CLOUDY    52  44  74 NE9       30.18R
LANSING*       CLOUDY    47  47  97 N6        30.19R
JOLIET*        CLOUDY    52  47  82 NE9       30.17S
WAUKEGAN       CLOUDY    46  41  82 N5        30.21R
DUPAGE AIRPORT CLOUDY    50  43  77 NE8       30.18S
KANKAKEE*      MOCLDY    51  48  91 NE9       30.17R
WHEELING       CLOUDY    49  43  80 N5        30.22R
MORRIS*        CLOUDY    52  46  80 NE5       30.17R
ROMEOVILLE*    FAIR      49  45  85 NE6       30.18R
NORTHERLY ISL    N/A     48  43  82 MISG        N/A
$$

LMZ740>746-210400-
SOUTHERN LAKE MICHIGAN

STATION/POSITION SKY/WX   TEMP    WIND        PRES    VSBY  WAVE
                          AIR SEA DIR/SP/G                  HT/PER
                          (F)     (DEG/KT/KT) (MB)    (MI)  (FT/S)
WILMETTE HARBOR            44 46  350/ 10/ 12   N/A           3/ 5
HARRISON CRIB              46     350/ 14/ 15   N/A
BURNHAM HARBOR             47     360/  7/  9   N/A
CALUMET HARBOR             46     330/  9/ 12 1021.9R
BURNS HARBOR               46     350/  6/ 10 1022.7R
MICHIGAN CITY              46     320/ 11/ 12   N/A
MICHIGAN CITY 6N           45 52  360/  6/ 10   N/A           3/ 5
ST. JOSEPH                 52 53   30/ 10/ 12 1022.4R         2/ 6
$$

ILZ025>027-034>036-040-047-049-050-058-095>099-210400-
WEST-CENTRAL ILLINOIS

CITY           SKY/WX    TMP DP  RH WIND       PRES   REMARKS
QUINCY         CLOUDY    70  64  81 SE3       30.07R
GALESBURG*     FAIR      62  55  78 NE10      30.11R
MACOMB*        MOCLDY    64  55  73 NE9       30.11R
JACKSONVILLE*  CLOUDY    69  63  82 E3        30.07R
PITTSFIELD*    CLOUDY    69  67  93 CALM      30.08R
$$

ILZ028>032-037-038-041>044-048-051>054-059>061-210400-
CENTRAL ILLINOIS

CITY           SKY/WX    TMP DP  RH WIND       PRES   REMARKS
PONTIAC        CLOUDY    55  53  91 NE18      30.15R
BLOOMINGTON    MOCLDY    59  50  72 NE14      30.14R
DECATUR        FAIR      68  61  78 NE8       30.08S
PEORIA         FAIR      65  54  67 E16       30.10R
LACON*         CLOUDY    58  51  78 NE12G17   30.13R
LINCOLN*       FAIR      68  59  72 NE5       30.08S
SPRINGFIELD    FAIR      71  64  78 E8        30.07R
TAYLORVILLE    FAIR      69  68  98 CALM      30.07R
$$

ILZ033-039-045-046-055>057-062-063-210400-
EAST-CENTRAL ILLINOIS

CITY           SKY/WX    TMP DP  RH WIND       PRES   REMARKS
CHAMPAIGN      FAIR      68  62  81 NE10      30.10R
DANVILLE*      FAIR      64  61  91 N10       30.10R
RANTOUL*       FAIR      63  58  83 NE14      30.12R
MATTOON        FAIR      72  68  87 E5        30.07R
PARIS*         FAIR      70  66  86 N7        30.10R
$$

ILZ079-100>102-210400-
SOUTHWEST ILLINOIS

CITY           SKY/WX    TMP DP  RH WIND       PRES   REMARKS
ALTON          CLEAR     68  66  94 CALM      30.06R
BELLEVILLE     MOCLDY    73  68  84 SE7       30.05R
CAHOKIA*       MOCLDY    72  68  87 CALM      30.05R
SPARTA*        PTCLDY    70  70  99 SE7       30.07S
$$

ILZ064>066-069>071-074>076-080>082-084>086-088>090-092>094-210400-
SOUTH-CENTRAL ILLINOIS

CITY           SKY/WX    TMP DP  RH WIND       PRES   REMARKS
CARBONDALE     FAIR      67  65  93 SE5       30.07R
CAIRO*         FAIR      68  68  99 E5        30.07R
EFFINGHAM*     FAIR      70  70  99 CALM      30.09R
MARION         FAIR      66  66  98 SE6       30.08F
CENTRALIA*     MOCLDY    72  69  92 SE3       30.06R
SALEM*         FAIR      74  67  79 CALM      30.07R
$$

ILZ067-068-072-073-078-083-087-091-210400-
SOUTHEAST ILLINOIS

CITY           SKY/WX    TMP DP  RH WIND       PRES   REMARKS
LAWRENCEVILLE  FAIR      76  68  76 CALM      30.07R
FLORA*         FAIR      72  68  88 CALM      30.07S
FAIRFIELD*     FAIR      71  70  96 CALM      30.08R
HARRISBURG*    FAIR      67  66  96 CALM      30.10R
ROBINSON*      FAIR      70  69  97 CALM      30.09R
CARMI*         FAIR      70  68  95 S9        30.10R
$$

ABBREVIATIONS USED IN REMARKS
   TC - TEMPERATURE IN CELSIUS
  WCI - WIND CHILL INDEX
   HX - HEAT INDEX
  VSB - VISIBILITY
$$





USA.gov is the U.S. government's official web portal to all federal, state and local government web resources and services.